EW8783 Weather Reports


time (UTC)temp
C
wind
direction
speed
KPH
gust
KPH
rain 1hr
cm
rain 24hr
cm
rain mn
cm
humidity
%
barometer
mb
20260505041506 10 188 0.0 3.2 0.00 0.00 0.00 1 1010.5
20260505040002 11 161 0.0 3.2 0.00 0.00 0.00 1 1010.6
20260505034558 11 161 0.0 4.8 0.00 0.00 0.00 8 1010.4
20260505033112 11 158 0.0 3.2 0.00 0.00 0.00 15 1010.3
20260505031550 11 158 1.6 4.8 0.00 0.00 0.00 20 1010.3
20260505030045 11 148 1.6 4.8 0.00 0.00 0.00 25 1010.5
20260505024541 11 184 0.0 4.8 0.00 0.00 0.00 29 1010.5
20260505023046 12 183 1.6 6.4 0.00 0.00 0.00 34 1010.5
20260505021532 12 230 1.6 4.8 0.00 0.00 0.00 38 1010.5
20260505020029 12 231 1.6 4.8 0.00 0.00 0.00 42 1010.6
20260505014523 12 215 3.2 8.0 0.00 0.00 0.00 45 1010.5
20260505013018 13 217 1.6 6.4 0.00 0.00 0.00 49 1010.3
20260505011519 13 178 1.6 12.9 0.00 0.00 0.00 52 1010.1
20260505010010 13 212 3.2 11.3 0.00 0.00 0.00 53 1009.9
20260505004518 13 216 1.6 8.0 0.00 0.00 0.00 53 1009.4
20260505003001 14 159 4.8 12.9 0.00 0.00 0.00 53 1009.1
20260505001558 14 167 4.8 12.9 0.00 0.00 0.00 52 1008.9
20260505000058 15 196 1.6 9.7 0.00 0.00 0.00 52 1008.7
20260504234613 15 215 3.2 9.7 0.00 0.00 0.00 50 1008.4
20260504233048 15 209 3.2 8.0 0.00 0.00 0.00 51 1008.2
20260504231550 16 163 3.2 11.3 0.00 0.00 0.00 50 1008.0
20260504230036 17 202 4.8 16.1 0.00 0.00 0.00 43 1007.8
20260504224531 17 167 6.4 14.5 0.00 0.00 0.00 43 1007.6
20260504223026 17 227 3.2 16.1 0.00 0.00 0.00 42 1007.5
20260504221524 18 221 8.0 19.3 0.00 0.00 0.00 42 1007.3
20260504220018 18 217 6.4 20.9 0.00 0.00 0.00 42 1007.3
20260504214517 18 207 9.7 25.7 0.00 0.00 0.00 41 1007.2
20260504213009 18 223 6.4 17.7 0.00 0.00 0.00 40 1007.2
20260504211504 19 185 4.8 17.7 0.00 0.00 0.00 39 1007.0
20260504210106 19 211 4.8 17.7 0.00 0.00 0.00 39 1006.9
20260504204636 19 245 4.8 16.1 0.00 0.00 0.00 37 1007.0
20260504203052 20 235 8.0 14.5 0.00 0.00 0.00 36 1006.9
20260504201546 20 222 4.8 19.3 0.00 0.00 0.00 36 1006.9
20260504200048 20 217 4.8 30.6 0.00 0.00 0.00 32 1006.9
20260504194548 20 268 6.4 16.1 0.00 0.00 0.00 32 1007.0
20260504193034 20 230 6.4 16.1 0.00 0.00 0.00 31 1007.0
20260504191530 20 228 6.4 24.1 0.00 0.00 0.00 31 1006.7
20260504190026 20 259 6.4 27.4 0.00 0.00 0.00 32 1007.0
20260504184521 20 270 8.0 19.3 0.00 0.00 0.00 31 1007.2
20260504183018 20 200 3.2 19.3 0.00 0.00 0.00 31 1007.5
20260504181513 20 212 6.4 16.1 0.00 0.00 0.00 30 1007.5
20260504180008 19 248 8.0 19.3 0.00 0.00 0.00 30 1007.5
20260504174504 20 236 4.8 24.1 0.00 0.00 0.00 32 1007.7
20260504173101 20 172 3.2 12.9 0.00 0.00 0.00 34 1007.5
20260504171555 19 223 8.0 14.5 0.00 0.00 0.00 31 1007.7
20260504081526 6 306 0.0 1.6 0.00 0.00 0.00 54 1010.0
20260504070105 5 306 0.0 0.0 0.00 0.00 0.00 37 1010.0
20260504050024 3 306 0.0 0.0 0.00 0.00 0.00 40 1010.0